Starlink 32267

operational
NORAD ID: 60363 Int'l Des: 2024-138 Owner: SPXS Country: US Constellation: starlink
LEOCIRCULAR

About Starlink 32267

Description loading...

Live Position

Loading 3D Globe...

Upcoming Passes

Altitude History

Altitude vs Time

uPlot chart will show altitude changes over time

Two-Line Element Set

1 60363U 24138J 25353.21473505 .00000549 00000-0 30664-4 0 9992
2 60363 53.1629 323.6072 0001292 87.1583 272.9566 15.30196115 78302
Epoch: Dec 19, 2025 • Age: 25 hours

Current Status

Altitude 480.6 km
Velocity 7.63 km/s
Sub-Earth Point 51.73°N, 158.26°W
Launch Date Aug 4, 2024
Age 1.3 years
Type internet

Technical Details

Classification Payload
Mass 730.00 kg
Dry Mass 700.00 kg
Total Mass 730.00 kg
Length 0.30 m
Diameter 4.10 m
Span 29.00 m
Shape Box + pan
Manufacturer SPXS
Bus Type Starlink V2M
Phase Status In Orbit
Owner/State SPXS/US

Large Constellations

Loading constellations...